KD9BLW-13 Weather Reports


time (UTC)temp
C
wind
direction
speed
KPH
gust
KPH
rain 1hr
cm
rain 24hr
cm
rain mn
cm
humidity
%
barometer
mb
20260905173228 33 200 4.8 11.3 0.00 0.00 0.00 61 1013.4
20260905172731 33 225 4.8 11.3 0.00 0.00 0.00 61 1013.5
20260905172235 33 266 4.8 14.5 0.00 0.00 0.00 60 1013.5
20260905171738 33 296 8.0 12.9 0.00 0.00 0.00 61 1013.6
20260905171221 33 267 6.4 9.7 0.00 0.00 0.00 61 1013.9
20260905170726 33 144 3.2 9.7 0.00 0.00 0.00 62 1014.0
20260905170230 33 183 6.4 9.7 0.00 0.00 0.00 61 1014.1
20260905165715 33 242 4.8 9.7 0.00 0.00 0.00 61 1014.3
20260905165220 33 190 4.8 11.3 0.00 0.00 0.00 62 1014.4
20260905164726 32 264 3.2 11.3 0.00 0.00 0.00 63 1014.4
20260905164232 32 229 3.2 11.3 0.00 0.00 0.00 64 1014.4
20260905163718 32 192 3.2 14.5 0.00 0.00 0.00 64 1014.4
20260905163224 32 173 3.2 14.5 0.00 0.00 0.00 65 1014.3
20260905162749 32 275 3.2 12.9 0.00 0.00 0.00 66 1014.2
20260905162214 32 144 1.6 14.5 0.00 0.00 0.00 66 1014.2
20260905161721 32 167 8.0 16.1 0.00 0.00 0.00 65 1014.2
20260905161226 31 166 8.0 16.1 0.00 0.00 0.00 66 1014.2
20260905160734 31 171 9.7 16.1 0.00 0.00 0.00 67 1014.1
20260905160218 31 160 3.2 12.9 0.00 0.00 0.00 67 1014.2
20260905155746 31 134 4.8 19.3 0.00 0.00 0.00 67 1014.2
20260905155231 31 215 6.4 19.3 0.00 0.00 0.00 67 1014.5
20260905154716 31 173 8.0 20.9 0.00 0.00 0.00 69 1014.6
20260905154222 31 144 9.7 20.9 0.00 0.00 0.00 68 1014.7
20260905153727 31 163 9.7 22.5 0.00 0.00 0.00 67 1014.5
20260905153235 30 167 9.7 25.7 0.00 0.00 0.00 69 1014.5
20260905152738 30 159 12.9 25.7 0.00 0.00 0.00 71 1014.4
20260905152219 30 127 11.3 19.3 0.00 0.00 0.00 71 1014.4
20260905151720 30 156 12.9 22.5 0.00 0.00 0.00 70 1014.3
20260905151222 30 162 11.3 22.5 0.00 0.00 0.00 71 1014.5
20260905150743 30 139 6.4 27.4 0.00 0.00 0.00 71 1014.4
20260905150224 30 164 12.9 27.4 0.00 0.00 0.00 71 1014.4
20260905145746 29 132 14.5 25.7 0.00 0.00 0.00 74 1014.5
20260905145227 29 115 9.7 19.3 0.00 0.00 0.00 75 1014.5
20260905144729 29 207 6.4 29.0 0.00 0.00 0.00 75 1014.5
20260905144253 29 78 17.7 29.0 0.00 0.00 0.00 76 1014.5
20260905143717 28 141 8.0 17.7 0.00 0.00 0.00 78 1014.5
20260905143241 28 220 8.0 17.7 0.00 0.00 0.00 79 1014.5
20260905142723 28 148 9.7 22.5 0.00 0.00 0.00 80 1014.5
20260905142228 28 171 12.9 22.5 0.00 0.00 0.00 80 1014.7
20260905141752 27 173 11.3 25.7 0.00 0.00 0.00 82 1014.7
20260905141214 27 188 14.5 25.7 0.00 0.00 0.00 84 1014.7
20260905140718 27 150 12.9 25.7 0.00 0.00 0.00 85 1014.7
20260905140223 26 148 14.5 29.0 0.00 0.00 0.00 87 1014.7
20260905135727 26 128 12.9 29.0 0.00 0.00 0.00 88 1014.7
20260905135232 26 148 14.5 24.1 0.00 0.00 0.00 90 1014.7
20260905134717 25 153 11.3 22.5 0.00 0.00 0.00 93 1014.6
20260905134222 25 156 9.7 19.3 0.00 0.00 0.00 94 1014.8
20260905133729 24 172 4.8 16.1 0.00 0.00 0.00 94 1014.7
20260905133234 24 155 8.0 16.1 0.00 0.00 0.00 94 1014.8
20260905132739 24 142 9.7 19.3 0.00 0.00 0.00 94 1014.8
20260905132224 24 161 6.4 27.4 0.00 0.00 0.00 94 1014.8
20260905131730 24 156 11.3 14.5 0.00 0.00 0.00 94 1014.9
20260905131216 24 171 0.0 6.4 0.00 0.00 0.00 95 1014.5
20260905130722 24 236 0.0 0.0 0.00 0.00 0.00 95 1014.4
20260905130250 23 236 0.0 0.0 0.00 0.00 0.00 94 1014.4
20260905125736 23 236 0.0 0.0 0.00 0.00 0.00 95 1014.2
20260905125222 23 236 0.0 0.0 0.00 0.00 0.00 94 1014.1
20260905124747 23 236 0.0 0.0 0.00 0.00 0.00 94 1014.1
20260905124213 23 236 0.0 0.0 0.00 0.00 0.00 94 1014.1
20260905123739 23 236 0.0 0.0 0.00 0.00 0.00 94 1014.1
20260905123245 23 236 0.0 0.0 0.00 0.00 0.00 94 1014.0
20260905122751 23 236 0.0 0.0 0.00 0.00 0.00 94 1014.0
20260905122217 23 236 0.0 0.0 0.00 0.00 0.00 94 1014.0
20260905121743 23 236 0.0 0.0 0.00 0.00 0.00 94 1014.0
20260905121250 23 236 0.0 0.0 0.00 0.00 0.00 94 1014.0
20260905120715 23 236 0.0 0.0 0.00 0.00 0.00 94 1014.0
20260905120221 23 236 0.0 0.0 0.00 0.00 0.00 94 1014.0
20260905115728 23 236 0.0 0.0 0.00 0.00 0.00 94 1013.8
20260905115235 23 236 0.0 0.0 0.00 0.00 0.00 93 1013.9
20260905114721 23 236 0.0 0.0 0.00 0.00 0.00 93 1013.8
20260905114246 23 236 0.0 0.0 0.00 0.00 0.00 93 1013.9
20260905113750 23 236 0.0 0.0 0.00 0.00 0.00 93 1013.9
20260905113231 23 236 0.0 0.0 0.00 0.00 0.00 93 1013.9
20260905112735 23 236 0.0 0.0 0.00 0.00 0.00 93 1013.7
20260905112218 23 236 0.0 0.0 0.00 0.00 0.00 93 1013.7
20260905111742 23 236 0.0 0.0 0.00 0.00 0.00 93 1013.6
20260905111225 23 236 0.0 0.0 0.00 0.00 0.00 93 1013.6
20260905110749 23 236 0.0 0.0 0.00 0.00 0.00 93 1013.5
20260905110232 23 236 0.0 0.0 0.00 0.00 0.00 93 1013.5
20260905105716 23 236 0.0 0.0 0.00 0.00 0.00 93 1013.5
20260905105220 23 236 0.0 0.0 0.00 0.00 0.00 93 1013.3
20260905104724 23 236 0.0 0.0 0.00 0.00 0.00 93 1013.3
20260905104228 23 236 0.0 0.0 0.00 0.00 0.00 93 1013.4
20260905103752 23 236 0.0 0.0 0.00 0.00 0.00 93 1013.4
20260905103215 23 236 0.0 0.0 0.00 0.00 0.00 93 1013.3
20260905102719 23 236 0.0 0.0 0.00 0.00 0.00 93 1013.4
20260905102243 23 236 0.0 0.0 0.00 0.00 0.00 93 1013.4
20260905101746 23 236 0.0 1.6 0.00 0.00 0.00 92 1013.5
20260905101229 23 236 0.0 1.6 0.00 0.00 0.00 92 1013.5
20260905100713 23 236 0.0 1.6 0.00 0.00 0.00 92 1013.5
20260905100217 23 236 0.0 1.6 0.00 0.00 0.00 93 1013.5
20260905095741 23 236 0.0 1.6 0.00 0.00 0.00 93 1013.4
20260905095224 23 236 0.0 1.6 0.00 0.00 0.00 92 1013.4
20260905094744 23 236 0.0 1.6 0.00 0.00 0.00 92 1013.4
20260905094247 23 236 0.0 1.6 0.00 0.00 0.00 92 1013.4
20260905093730 23 236 0.0 3.2 0.00 0.00 0.00 92 1013.5
20260905093214 23 236 0.0 3.2 0.00 0.00 0.00 92 1013.5
20260905092738 23 236 0.0 3.2 0.00 0.00 0.00 92 1013.5
20260905092243 23 259 0.0 0.0 0.00 0.00 0.00 92 1013.4
20260905091748 24 260 0.0 0.0 0.00 0.00 0.00 92 1013.4
20260905091253 24 260 0.0 0.0 0.00 0.00 0.00 92 1013.3
20260905090738 24 260 0.0 0.0 0.00 0.00 0.00 92 1013.3
20260905090244 24 260 0.0 0.0 0.00 0.00 0.00 92 1013.3
20260905085729 24 260 0.0 0.0 0.00 0.00 0.00 92 1013.2
20260905085213 24 260 0.0 0.0 0.00 0.00 0.00 92 1013.1
20260905084737 24 260 0.0 0.0 0.00 0.00 0.00 92 1013.1
20260905084220 24 260 0.0 0.0 0.00 0.00 0.00 92 1013.1
20260905083746 24 260 0.0 0.0 0.00 0.00 0.00 92 1013.0
20260905083232 24 260 0.0 0.0 0.00 0.00 0.00 92 1012.9
20260905082718 24 260 0.0 0.0 0.00 0.00 0.00 92 1012.9
20260905082225 24 260 0.0 0.0 0.00 0.00 0.00 92 1012.8
20260905081731 24 260 0.0 3.2 0.00 0.00 0.00 92 1012.8
20260905081218 24 260 0.0 4.8 0.00 0.00 0.00 92 1012.9
20260905080724 24 260 1.6 4.8 0.00 0.00 0.00 92 1012.7
20260905080230 24 261 3.2 4.8 0.00 0.00 0.00 92 1012.8
20260905075717 24 225 0.0 4.8 0.00 0.00 0.00 91 1012.7
20260905075223 24 226 0.0 0.0 0.00 0.00 0.00 92 1012.7
20260905074729 24 226 0.0 0.0 0.00 0.00 0.00 91 1012.8
20260905074216 24 226 0.0 0.0 0.00 0.00 0.00 91 1012.8
20260905073743 24 226 0.0 0.0 0.00 0.00 0.00 92 1013.0
20260905073228 24 226 0.0 0.0 0.00 0.00 0.00 92 1013.0
20260905072736 24 226 0.0 0.0 0.00 0.00 0.00 92 1013.0
20260905072221 24 226 0.0 0.0 0.00 0.00 0.00 92 1013.0
20260905071745 25 226 0.0 0.0 0.00 0.00 0.00 92 1013.1
20260905071227 25 226 0.0 0.0 0.00 0.00 0.00 92 1013.0
20260905070751 25 226 0.0 0.0 0.00 0.00 0.00 92 1013.2
20260905070214 25 226 0.0 0.0 0.00 0.00 0.00 91 1013.2
20260905065718 25 226 0.0 0.0 0.00 0.00 0.00 91 1013.2
20260905065222 25 226 0.0 0.0 0.00 0.00 0.00 91 1013.2
20260905064726 25 226 0.0 0.0 0.00 0.00 0.00 91 1013.2
20260905064230 25 226 0.0 0.0 0.00 0.00 0.00 91 1013.3
20260905063714 25 226 0.0 0.0 0.00 0.00 0.00 91 1013.3
20260905063218 25 226 0.0 0.0 0.00 0.00 0.00 91 1013.3
20260905062742 25 226 0.0 0.0 0.00 0.00 0.00 91 1013.3
20260905062225 25 226 0.0 0.0 0.00 0.00 0.00 91 1013.4
20260905061729 25 226 0.0 0.0 0.00 0.00 0.00 91 1013.3
20260905061253 25 226 0.0 0.0 0.00 0.00 0.00 91 1013.4
20260905060717 25 226 0.0 0.0 0.00 0.00 0.00 91 1013.4
20260905060243 25 226 0.0 0.0 0.00 0.00 0.00 91 1013.4
20260905055749 25 226 0.0 0.0 0.00 0.00 0.00 91 1013.5
20260905055253 25 226 0.0 0.0 0.00 0.00 0.00 91 1013.5
20260905054716 25 226 0.0 0.0 0.00 0.00 0.00 91 1013.6
20260905054222 25 226 0.0 1.6 0.00 0.00 0.00 91 1013.6
20260905053729 25 226 0.0 1.6 0.00 0.00 0.00 91 1013.7
20260905053236 25 226 0.0 0.0 0.00 0.00 0.00 90 1013.7
20260905052742 25 226 0.0 0.0 0.00 0.00 0.00 90 1013.8
20260905052228 25 226 0.0 0.0 0.00 0.00 0.00 90 1013.8
20260905051714 25 226 0.0 0.0 0.00 0.00 0.00 90 1013.6
20260905051241 25 226 0.0 0.0 0.00 0.00 0.00 90 1013.7
20260905050747 25 226 0.0 0.0 0.00 0.00 0.00 90 1013.7
20260905050253 25 226 0.0 0.0 0.00 0.00 0.00 90 1013.7
20260905045719 26 226 0.0 0.0 0.00 0.00 0.00 90 1013.9
20260905045245 25 226 0.0 0.0 0.00 0.00 0.00 90 1013.9
20260905044731 26 226 0.0 0.0 0.00 0.00 0.00 90 1013.9
20260905044213 26 226 0.0 0.0 0.00 0.00 0.00 90 1014.0
20260905043719 26 226 0.0 0.0 0.00 0.00 0.00 90 1014.0
20260905043225 26 226 0.0 0.0 0.00 0.00 0.00 90 1013.9
20260905042731 26 226 0.0 0.0 0.00 0.00 0.00 89 1013.8
20260905042239 26 226 0.0 0.0 0.00 0.00 0.00 89 1013.8
20260905041724 26 226 0.0 0.0 0.00 0.00 0.00 89 1013.7
20260905041231 26 226 0.0 0.0 0.00 0.00 0.00 89 1013.9
20260905040717 26 226 0.0 0.0 0.00 0.00 0.00 88 1013.8
20260905040223 26 226 0.0 0.0 0.00 0.00 0.00 88 1013.9
20260905035728 26 226 0.0 0.0 0.00 0.00 0.00 88 1013.9
20260905035236 26 226 0.0 0.0 0.00 0.00 0.00 88 1013.9
20260905034742 26 226 0.0 0.0 0.00 0.00 0.00 87 1013.9
20260905034248 26 226 0.0 0.0 0.00 0.00 0.00 87 1014.0
20260905033753 26 226 0.0 0.0 0.00 0.00 0.00 86 1013.9
20260905033219 26 226 0.0 0.0 0.00 0.00 0.00 86 1014.0
20260905032725 26 226 0.0 0.0 0.00 0.00 0.00 85 1013.9
20260905032231 26 226 0.0 1.6 0.00 0.00 0.00 85 1013.9
20260905031718 26 226 0.0 1.6 0.00 0.00 0.00 85 1013.8
20260905031224 26 226 0.0 3.2 0.00 0.00 0.00 85 1013.9
20260905030752 27 226 0.0 3.2 0.00 0.00 0.00 85 1013.9
20260905030217 27 226 0.0 0.0 0.00 0.00 0.00 85 1013.9
20260905025723 27 226 0.0 0.0 0.00 0.00 0.00 84 1013.9
20260905025230 27 226 0.0 0.0 0.00 0.00 0.00 84 1013.9
20260905024716 27 226 0.0 0.0 0.00 0.00 0.00 84 1013.9
20260905024222 27 226 0.0 0.0 0.00 0.00 0.00 83 1013.9
20260905023729 27 226 0.0 0.0 0.00 0.00 0.00 84 1013.9
20260905023215 27 226 0.0 0.0 0.00 0.00 0.00 83 1013.9
20260905022718 27 226 0.0 0.0 0.00 0.00 0.00 82 1014.0
20260905022241 27 226 0.0 0.0 0.00 0.00 0.00 81 1013.9
20260905021724 27 226 0.0 0.0 0.00 0.00 0.00 81 1013.9
20260905021228 28 226 0.0 0.0 0.00 0.00 0.00 81 1014.0
20260905020732 28 226 0.0 0.0 0.00 0.00 0.00 80 1013.9
20260905020216 28 226 0.0 0.0 0.00 0.00 0.00 79 1013.8
20260905015740 28 226 0.0 0.0 0.00 0.00 0.00 78 1013.8
20260905015223 28 226 0.0 3.2 0.00 0.00 0.00 77 1013.9
20260905014747 28 226 0.0 3.2 0.00 0.00 0.00 77 1013.8
20260905014230 28 226 0.0 1.6 0.00 0.00 0.00 77 1013.7
20260905013715 28 226 0.0 0.0 0.00 0.00 0.00 77 1013.6
20260905013220 28 226 0.0 1.6 0.00 0.00 0.00 77 1013.5
20260905012725 29 226 0.0 1.6 0.00 0.00 0.00 76 1013.6
20260905012230 29 226 0.0 3.2 0.00 0.00 0.00 76 1013.6
20260905011715 29 226 0.0 4.8 0.00 0.00 0.00 76 1013.5
20260905011242 30 226 1.6 4.8 0.00 0.00 0.00 76 1013.5
20260905010726 30 315 0.0 0.0 0.00 0.00 0.00 75 1013.4
20260905010232 30 315 0.0 0.0 0.00 0.00 0.00 75 1013.4
20260905005718 30 316 0.0 0.0 0.00 0.00 0.00 74 1013.3
20260905005223 30 316 0.0 0.0 0.00 0.00 0.00 74 1013.3
20260905004728 31 316 0.0 0.0 0.00 0.00 0.00 74 1013.2
20260905004214 31 316 0.0 0.0 0.00 0.00 0.00 72 1013.1
20260905003719 31 316 0.0 0.0 0.00 0.00 0.00 71 1013.2
20260905003225 31 316 0.0 0.0 0.00 0.00 0.00 70 1013.2
20260905002729 31 316 0.0 0.0 0.00 0.00 0.00 70 1013.1
20260905002234 32 316 0.0 0.0 0.00 0.00 0.00 70 1013.1
20260905001741 32 316 0.0 1.6 0.00 0.00 0.00 70 1013.0
20260905001246 32 316 0.0 3.2 0.00 0.00 0.00 69 1013.0
20260905000713 33 316 1.6 3.2 0.00 0.00 0.00 68 1013.0
20260905000219 33 316 1.6 3.2 0.00 0.00 0.00 66 1012.9
20260904235725 34 316 0.0 1.6 0.00 0.00 0.00 65 1012.9
20260904235251 34 316 0.0 0.0 0.00 0.00 0.00 64 1013.0
20260904234737 35 316 0.0 0.0 0.00 0.00 0.00 63 1013.0
20260904234222 35 316 0.0 0.0 0.00 0.00 0.00 62 1013.0
20260904233730 35 316 0.0 0.0 0.00 0.00 0.00 61 1013.0
20260904233236 36 316 0.0 0.0 0.00 0.00 0.00 58 1013.0
20260904232744 36 316 0.0 0.0 0.00 0.00 0.00 56 1013.0
20260904232249 36 316 0.0 0.0 0.00 0.00 0.00 54 1013.0
20260904231734 36 316 0.0 1.6 0.00 0.00 0.00 55 1013.0
20260904231219 37 316 0.0 1.6 0.00 0.00 0.00 55 1013.0
20260904230722 37 316 0.0 1.6 0.00 0.00 0.00 55 1013.1
20260904230229 37 316 0.0 1.6 0.00 0.00 0.00 55 1013.0
20260904225714 37 316 0.0 1.6 0.00 0.00 0.00 55 1013.1
20260904225221 37 316 0.0 3.2 0.00 0.00 0.00 54 1013.0
20260904224727 37 316 1.6 3.2 0.00 0.00 0.00 51 1013.1
20260904224253 37 316 0.0 3.2 0.00 0.00 0.00 51 1013.1
20260904223718 37 316 1.6 4.8 0.00 0.00 0.00 51 1013.0
20260904223224 37 316 1.6 4.8 0.00 0.00 0.00 50 1013.1
20260904222750 37 316 1.6 3.2 0.00 0.00 0.00 49 1013.0
20260904222215 37 316 1.6 6.4 0.00 0.00 0.00 49 1013.0
20260904221721 37 325 1.6 6.4 0.00 0.00 0.00 47 1013.1
20260904221246 37 331 1.6 4.8 0.00 0.00 0.00 47 1013.1
20260904220727 37 332 3.2 4.8 0.00 0.00 0.00 50 1013.2
20260904220230 37 343 3.2 4.8 0.00 0.00 0.00 49 1013.2
20260904215732 38 343 1.6 3.2 0.00 0.00 0.00 48 1013.3
20260904215214 38 344 1.6 4.8 0.00 0.00 0.00 48 1013.4
20260904214715 38 343 1.6 6.4 0.00 0.00 0.00 47 1013.3
20260904214219 38 326 1.6 8.0 0.00 0.00 0.00 46 1013.4
20260904213723 38 300 4.8 8.0 0.00 0.00 0.00 48 1013.3
20260904213247 38 303 3.2 4.8 0.00 0.00 0.00 48 1013.3
20260904212730 38 303 3.2 8.0 0.00 0.00 0.00 49 1013.4
20260904212231 38 306 4.8 11.3 0.00 0.00 0.00 49 1013.5
20260904211735 38 265 4.8 11.3 0.00 0.00 0.00 46 1013.4
20260904211238 37 336 1.6 8.0 0.00 0.00 0.00 48 1013.4
20260904210721 37 328 3.2 9.7 0.00 0.00 0.00 47 1013.5
20260904210225 37 335 3.2 9.7 0.00 0.00 0.00 47 1013.5
20260904205729 37 321 3.2 6.4 0.00 0.00 0.00 48 1013.6
20260904205213 37 335 1.6 8.0 0.00 0.00 0.00 48 1013.7
20260904204716 37 321 3.2 8.0 0.00 0.00 0.00 46 1013.7
20260904204221 37 333 3.2 9.7 0.00 0.00 0.00 47 1013.7
20260904203745 37 334 6.4 9.7 0.00 0.00 0.00 47 1013.8
20260904203247 38 323 3.2 8.0 0.00 0.00 0.00 49 1013.9
20260904202731 37 296 4.8 6.4 0.00 0.00 0.00 50 1014.0
20260904202215 37 271 3.2 6.4 0.00 0.00 0.00 48 1014.0
20260904201720 37 328 1.6 4.8 0.00 0.00 0.00 49 1014.1
20260904201225 37 329 0.0 8.0 0.00 0.00 0.00 47 1014.1
20260904200730 37 329 4.8 9.7 0.00 0.00 0.00 48 1014.3
20260904200217 37 295 4.8 9.7 0.00 0.00 0.00 49 1014.3
20260904195743 37 335 4.8 8.0 0.00 0.00 0.00 48 1014.4
20260904195227 37 327 3.2 8.0 0.00 0.00 0.00 48 1014.4
20260904194713 37 66 4.8 12.9 0.00 0.00 0.00 50 1014.6
20260904194219 37 117 3.2 14.5 0.00 0.00 0.00 49 1014.8
20260904193724 37 340 3.2 14.5 0.00 0.00 0.00 50 1014.9
20260904193230 37 298 1.6 17.7 0.00 0.00 0.00 49 1014.9
20260904192737 37 323 6.4 17.7 0.00 0.00 0.00 49 1015.0
20260904192242 37 336 6.4 16.1 0.00 0.00 0.00 51 1015.1
20260904191748 37 319 3.2 16.1 0.00 0.00 0.00 48 1015.1
20260904191234 37 355 6.4 14.5 0.00 0.00 0.00 49 1015.2
20260904190719 37 333 9.7 14.5 0.00 0.00 0.00 50 1015.2
20260904190246 37 269 3.2 9.7 0.00 0.00 0.00 49 1015.2
20260904185712 37 306 4.8 8.0 0.00 0.00 0.00 52 1015.3
20260904185219 36 302 3.2 11.3 0.00 0.00 0.00 52 1015.3
20260904184725 36 254 3.2 12.9 0.00 0.00 0.00 51 1015.4
20260904184231 36 329 6.4 12.9 0.00 0.00 0.00 52 1015.5
20260904183738 36 313 4.8 9.7 0.00 0.00 0.00 52 1015.5
20260904183224 36 360 6.4 9.7 0.00 0.00 0.00 53 1015.6
20260904182728 36 309 4.8 8.0 0.00 0.00 0.00 54 1015.6
20260904182216 36 292 3.2 11.3 0.00 0.00 0.00 54 1015.7
20260904181722 36 303 4.8 12.9 0.00 0.00 0.00 52 1015.7
20260904181249 36 302 3.2 12.9 0.00 0.00 0.00 52 1015.7
20260904180733 36 302 6.4 12.9 0.00 0.00 0.00 51 1015.7
20260904180219 36 311 3.2 14.5 0.00 0.00 0.00 52 1015.9
20260904175725 36 325 9.7 16.1 0.00 0.00 0.00 51 1015.9
20260904175230 36 355 8.0 16.1 0.00 0.00 0.00 52 1016.0
20260904174737 36 298 6.4 14.5 0.00 0.00 0.00 55 1016.0
20260904174223 36 329 3.2 8.0 0.00 0.00 0.00 52 1016.1
20260904173749 36 307 4.8 9.7 0.00 0.00 0.00 54 1016.1